Regional Weather Roundup
Issued by NWS

Home | Current Version | Previous Version | Graphics & Text | Print | Product List | Glossary On
Versions: 1 2 3 4 5 6 7 8 9 10 11 12 13 14 15 16 17 18 19 20 21 22 23 24 25 26 27 28 29 30 31 32 33 34 35 36 37 38 39 40 41 42 43 44 45 46 47 48 49 50
000
ASUS43 KMPX 232301
RWRMN
WEATHER ROUNDUP FOR MINNESOTA
NATIONAL WEATHER SERVICE TWIN CITIES/CHANHASSEN MN
600 PM CDT WED MAY 23 2018


NOTE: "FAIR" INDICATES FEW OR NO CLOUDS BELOW 12,000 FEET WITH NO
SIGNIFICANT WEATHER AND/OR OBSTRUCTIONS TO VISIBILITY. N/A MEANS
CURRENT SKY AND/OR WEATHER CONDITIONS ARE NOT AVAILABLE.

MNZ060>063-068>070-240000-
   Twin Cities Metro

CITY           SKY/WX    TMP DP  RH WIND       PRES   REMARKS
TWIN CITIES    PTSUNNY   82  60  47 SE7       30.06S
ST PAUL        FAIR      82  62  50 VRB6      30.06S
CRYSTAL        FAIR      82  57  42 S6        30.04F
BLAINE         PTSUNNY   82  61  47 SE7       30.06F
LAKEVILLE      FAIR      82  61  47 SE13      30.05F
EDEN PRAIRIE   FAIR      83  61  47 VRB5      30.04F
SOUTH ST PAUL  FAIR      83  60  44 SE6       30.05F
LAKE ELMO      FAIR      81  63  54 SE6       30.08F
$$
MNZ001>005-007-008-013>017-022>024-027-028-240000-
   Northwest Minnesota

CITY           SKY/WX    TMP DP  RH WIND       PRES   REMARKS
BEMIDJI        FAIR      79  58  48 SE8       30.01F
HALLOCK        FAIR      82  59  44 S20       29.93S
ROSEAU         FAIR      82  55  39 S7        29.98F
WARROAD        FAIR      75  61  60 NE8       30.00S
THIEF RVR FALL FAIR      81  59  47 S16       29.98F
CROOKSTON      FAIR      81  61  50 S15       29.96S
FOSSTON        FAIR      79  55  44 SE8       30.00S
DETROIT LAKES  FAIR      77  59  53 S12G17    30.03S
MOORHEAD       FAIR      77  61  57 SE16      29.97F
PARK RAPIDS    FAIR      78  60  53 S10       30.02S
MAHNOMEN       FAIR      77  60  54 S10G16    30.00R
$$
MNZ006-009>011-018-025>026-240000-
   North Central Minnesota

CITY           SKY/WX    TMP DP  RH WIND       PRES   REMARKS
BAUDETTE       FAIR      82  52  35 S12G20    30.00F
FLAG ISLAND    FAIR      81  52  36 SE3       29.99F
INTL FALLS     FAIR      84  50  30 SW10      30.01F
WASKISH          N/A     81  57  44 NW5       30.01F
BIG FORK       FAIR      82  55  39 S3        30.03F
LONGVILLE      FAIR      81  59  47 S8        30.03F
GRAND RAPIDS   FAIR      80  58  46 S8        30.06F
CRANE LAKE     FAIR      81  46  30 CALM      30.04F
ORR            FAIR      81  46  30 S6        30.02S
COOK           FAIR      81  52  36 SW8       30.05F
WALKER         FAIR      77  62  58 SE5       30.02F
$$
MNZ012-019>021-037-240000-
   Northeast Minnesota

CITY           SKY/WX    TMP DP  RH WIND       PRES   REMARKS
DULUTH         FAIR      76  55  48 SE8       30.08S
ELY            PTSUNNY   82  46  28 SW7       30.05F
HIBBING        FAIR      78  56  46 SE6       30.05F
EVELETH        FAIR      79  55  44 S8        30.07F
DULUTH HARBOR  FAIR      48  45  87 NE6       30.08F
TWO HARBORS    FAIR      81  61  50 E8        30.06F
SILVER BAY     FAIR      75  55  50 E7        30.07S
GRAND MARAIS     N/A     49  39  68 NE5       30.09F
G MARAIS ARPRT FAIR      73  39  29 S6        30.12F
$$
MNZ029>031-032-039>041-046>048-054>057-064-240000-
   West Central Minnesota

CITY           SKY/WX    TMP DP  RH WIND       PRES   REMARKS
FERGUS FALLS   FAIR      75  61  60 SE9       29.96F
WHEATON        MOSUNNY   72  63  73 E14       29.98F
MORRIS         CLOUDY    75  63  64 SE16      29.99F
ALEXANDRIA     CLOUDY    74  62  66 CALM      30.05R
ELBOW LAKE     PTSUNNY   75  60  58 SE13      30.01S
WADENA         FAIR      73  59  60 S8        30.03S
GLENWOOD       FAIR      75  63  64 SE13      30.04S
APPLETON       PTSUNNY   77  63  61 E16G23    29.98F
BENSON         CLOUDY    79  61  53 SE12G20   30.01F
ORTONVILLE     CLOUDY    73  63  68 E16       29.97F
MADISON        CLOUDY    82  68  61 SE20      29.97F
WILLMAR        FAIR      73  63  68 E12       30.05F
$$
MNZ033>034-036-042>043-049>051-058-059-240000-
   Central Minnesota

CITY           SKY/WX    TMP DP  RH WIND       PRES   REMARKS
ST CLOUD       FAIR      74  59  59 SE9       30.06F
SAUK CENTRE    FAIR      73  62  70 SE10      30.04F
PAYNESVILLE    FAIR      73  64  71 SE8       30.06F
PINE RIVER     FAIR      73  61  64 SE6       30.06F
BRAINERD       FAIR      78  59  51 SE8       30.04F
STAPLES        FAIR      75  57  53 S13       30.05R
LONG PRAIRIE   FAIR      70  61  73 E10       30.05R
LITTLE FALLS   PTSUNNY   72  61  68 SE9       30.04F
LITCHFIELD     FAIR      75  64  69 E8        30.06S
BUFFALO        FAIR      76  60  55 NE5       30.07F
MAPLE LAKE     FAIR      75  64  66 E5        30.07F
HUTCHINSON     FAIR      79  67  66 NE8       30.05F
$$
MNZ037-044-045-052-053-240000-
   East Central Minnesota

CITY           SKY/WX    TMP DP  RH WIND       PRES   REMARKS
PRINCETON      FAIR      77  63  61 CALM      30.07S
MORA           FAIR      75  55  50 S8        30.08F
CAMBRIDGE      FAIR      81  61  50 CALM      30.08R
RUSH CITY      FAIR      77  60  56 CALM      30.07F
MOOSE LAKE     FAIR      79  59  50 SW8       30.05S
HINCKLEY       FAIR      77  61  57 S9        30.07F
CLOQUET        FAIR      81  55  41 SE7       30.06F
MCGREGOR       FAIR      77  61  57 S9        30.06S
$$
MNZ071>073-080-081-089-090-097-098-240000-
   Southwest Minnesota

CITY           SKY/WX    TMP DP  RH WIND       PRES   REMARKS
MONTEVIDEO     PTSUNNY   77  64  65 SE18      29.99F
GRANITE FALLS  CLOUDY    80  69  69 E13G22    30.01F
CANBY          CLOUDY    79  68  69 E20G25    29.98F
MARSHALL       CLOUDY    78  71  79 SE13      29.98F
REDWOOD FALLS  MOSUNNY   79  69  71 SE10      30.00F
OLIVIA         CLOUDY    75  64  69 E9        30.02F
PIPESTONE      CLOUDY    84  59  42 SW13      29.97F
WINDOM         CLOUDY    81  59  47 SE14      30.01S
WORTHINGTON      N/A     88  59  37 S15G22    30.00S
JACKSON        MOSUNNY   81  68  65 SE16      30.03S
TRACY          CLOUDY    80  73  79 SE13G20   29.98F
SLAYTON        MOSUNNY   85  60  42 S18       30.00S
$$
MNZ065>067-074>077-082>085-091>093-240000-
   South Central Minnesota

CITY           SKY/WX    TMP DP  RH WIND       PRES   REMARKS
MANKATO        FAIR      82  67  60 SE13      30.04F
NEW ULM        MOSUNNY   81  64  57 SE8       30.02F
ST JAMES       CLOUDY    84  63  48 SE13      30.02F
FAIRMONT       CLOUDY    82  68  62 SE15      30.02F
GLENCOE        FAIR      83  62  48 E8        30.04F
FARIBAULT      FAIR      84  63  48 CALM      30.06F
OWATONNA       FAIR      82  66  57 SE12      30.07S
WASECA         FAIR      79  64  61 SE9       30.07S
ALBERT LEA     FAIR      81  63  54 S10       30.06F
$$
MNZ078>079-086>088-094>096-240000-
   Southeast Minnesota

CITY           SKY/WX    TMP DP  RH WIND       PRES   REMARKS
ROCHESTER      FAIR      78  65  63 SE10      30.10S
RED WING       FAIR      81  55  41 SE5       30.06S
STANTON        FAIR      83  62  47 S8        30.04F
DODGE CENTER   FAIR      79  63  57 SE12      30.09F
WINONA         FAIR      79  63  57 S6        30.07S
AUSTIN         CLOUDY    79  66  65 CALM      30.08F
PRESTON        FAIR      75  64  68 SE7       30.11F
$$
ABBREVIATIONS USED IN REMARKS
   TC - TEMPERATURES IN CELSIUS
  WCI - WIND CHILL INDEX
   HX - HEAT INDEX
  VSB - VISIBILITY
$$




USA.gov is the U.S. government's official web portal to all federal, state and local government web resources and services.